DELTA 1 DEB, 13530

Orbit data source: Space-Track

DELTA 1 DEB, 13530 is space debris in SSO originally from a launch on Thu, 29 Jul 1976 UTC launched from the Air Force Western Test Range (AFWTR). Debris objects in space refer to the collection of defunct objects orbiting the Earth. Examples of debris include non-operational satellites, rocket bodies, and fragments generated from explosions, collisions, or faulty payload assembly.

Loading next visibility...
Identifier
13530, 1976-077EC
Orbit
SSO
Country
Flag of USUS
Related business
Manufacturer
Unknown
Mission
Spacecraft
Bus & Motor
Unknown
Mass
Unknown
Launch date (UTC)
1976-07-29 (50 years ago)
Launch vehicle
Unknown
Launch site
Air Force Western Test Range (AFWTR)
Object type
Payload
Rocket body
Debris
Shape & HBR
Unknown shape, 0.1 m
Radar Cross Section
Medium (>0.1 m² and <1 m²)

Expand to show TLE details & history
Last TLE update: 2 days ago

TLE from 2 days ago
0 DELTA 1 DEB
1 13530U 76077EC  26171.23716507  .00000172  00000-0  16555-2 0  9991
2 13530 102.3380 278.7907 0114786 358.4848  30.2335 12.37251494 62820
Epoch: 2026-06-20T05:41Z
TLE epoch observation values (Epoch: 2026-06-20T05:41:31.062Z)
Latitude
28.69115°
Longitude
-81.88453°
Altitude
1,443.442 km
Speed
7.178 km/s
True Right ascension
18h 07m 47s
True Declination
28° 33' 33"
Sunlit
Object was in full shadow at epoch
Visualization orbit readout
Latitude
Unknown
Longitude
Unknown
Altitude
Unknown
Speed
Unknown
Apparent Right ascension
Unknown
Apparent Declination
Unknown
Sunlit
N/A
Visualization observer readout
Local Sidereal Time
03:44:19
Azimuth
Unknown
Elevation
Unknown
Doppler factor
Unknown
Orbital elements
Apogee altitude
1,606.486 km
Perigee altitude
1,425.262 km
Semi-major axis
7,894.011 km
Eccentricity
0.01148
Inclination
102.338°
RAAN
278.7907°
Arg. of periapsis
358.4848°
True anomaly
30.90411°
Mean anomaly
30.2335°
Eccentric anomaly
30.56797°
Mean motion
3.09454 °/min
Orbital period
116.33 mins
BSTAR
0.0016555
Loading maneuver chart data...
Computing Atmospheric mass density...
Loading historical data...
Loading historical data...
Loading historical data...
Loading historical data...
Loading historical data...
Loading historical data...
Loading historical data...

Documentation

Showing up to 5 results
|